Voltar ao catálogo

LATINSAT A

AtivoComunicaçõesLEO
NORAD 27612·PAYLOAD·🇦🇷 Argentina

Lançado Dec 20, 2002 de Baikonur Cosmodrome

Loading…

Próximas Passagens (próximas 24 horas)

TLE

AtualizadoSource: Space-Track

Época: Sep 14, 2026, 10:06 UTC

1 27612U 02058H   26257.42127257  .00000710  00000-0  97817-4 0  9999
2 27612  64.5546  44.4913 0047599 234.3970 125.2699 14.85601475280888

Acompanhe LATINSAT A em tempo real com AllMySat

Download on the App Store